FW6456 Weather Reports


Display with metric or nautical units.
time (UTC)temp
F
wind
direction
speed
MPH
gust
MPH
rain 1hr
in
rain 24hr
in
rain mn
in
humidity
%
barometer
mb
20260510075306 56 79 0.0 0.0 0.00 0.00 0.00 92 3405.0
20260510074759 56 79 0.0 0.0 0.00 0.00 0.00 92 3404.9
20260510074256 56 78 0.0 0.0 0.00 0.00 0.00 92 3404.8
20260510073752 56 78 0.0 0.0 0.00 0.00 0.00 92 3404.9
20260510073248 56 78 0.0 0.0 0.00 0.00 0.00 92 3404.8
20260510072744 56 78 0.0 0.0 0.00 0.00 0.00 92 3404.8
20260510072240 56 79 0.0 0.0 0.00 0.00 0.00 92 3404.4
20260510071737 56 80 0.0 0.0 0.00 0.00 0.00 92 3404.6
20260510071234 56 98 0.0 0.0 0.00 0.00 0.00 92 3404.7
20260510070732 56 95 0.0 0.0 0.00 0.00 0.00 93 3404.6
20260510070229 56 133 0.0 0.0 0.00 0.00 0.00 93 3404.5
20260510065724 55 133 0.0 0.0 0.00 0.00 0.00 93 3404.3
20260510065221 55 134 0.0 0.0 0.00 0.00 0.00 93 3404.5
20260510064717 55 133 0.0 0.0 0.00 0.00 0.00 94 3404.7
20260510064215 56 134 0.0 0.0 0.00 0.00 0.00 93 3404.4
20260510063711 56 133 0.0 0.0 0.00 0.00 0.00 94 3404.7
20260510063207 56 133 0.0 0.0 0.00 0.00 0.00 94 3404.5
20260510062704 56 133 0.0 0.0 0.00 0.00 0.00 94 3404.7
20260510062200 56 133 0.0 0.0 0.00 0.00 0.00 94 3404.5
20260510061655 56 133 0.0 0.0 0.00 0.00 0.00 93 3404.7
20260510061153 56 133 0.0 0.0 0.00 0.00 0.00 93 3404.6
20260510060649 57 133 0.0 0.0 0.00 0.00 0.00 93 3404.5
20260510060146 57 133 0.0 0.0 0.00 0.00 0.00 93 3404.7
20260510055642 57 133 0.0 0.0 0.00 0.00 0.00 93 3404.6
20260510055140 57 134 0.0 0.0 0.00 0.00 0.00 93 3404.8
20260510054635 57 133 0.0 0.0 0.00 0.00 0.00 93 3404.7
20260510054131 57 133 0.0 0.0 0.00 0.00 0.00 93 3404.6
20260510053630 57 133 0.0 0.0 0.00 0.00 0.00 93 3404.8
20260510053127 57 133 0.0 0.0 0.00 0.00 0.00 93 3404.5
20260510052624 57 133 0.0 0.0 0.00 0.00 0.00 93 3404.9
20260510052120 57 133 0.0 0.0 0.00 0.00 0.00 92 3404.8
20260510051615 57 133 0.0 0.0 0.00 0.00 0.00 92 3404.5
20260510051113 57 133 0.0 0.0 0.00 0.00 0.00 92 3404.7
20260510050610 57 133 0.0 0.0 0.00 0.00 0.00 92 3404.5
20260510050106 57 133 0.0 0.0 0.00 0.00 0.00 92 3404.6
20260510045603 57 133 0.0 0.0 0.00 0.00 0.00 92 3404.8
20260510045059 57 133 0.0 0.0 0.00 0.00 0.00 91 3404.6
20260510044556 57 133 0.0 0.0 0.00 0.00 0.00 91 3404.6
20260510044054 58 133 0.0 0.0 0.00 0.00 0.00 91 3404.7
20260510043549 58 133 0.0 0.0 0.00 0.00 0.00 91 3404.7
20260510043045 58 133 0.0 0.0 0.00 0.00 0.00 90 3404.6
20260510042544 58 133 0.0 0.0 0.00 0.00 0.00 90 3404.7
20260510042040 59 133 0.0 0.0 0.00 0.00 0.00 89 3404.5
20260510041537 59 133 0.0 0.0 0.00 0.00 0.00 89 3404.6
20260510041034 59 133 0.0 0.0 0.00 0.00 0.00 89 3404.8
20260510040531 59 133 0.0 0.0 0.00 0.00 0.00 89 3404.7
20260510040027 59 133 0.0 0.0 0.00 0.00 0.00 88 3404.5
20260510035523 59 133 0.0 0.0 0.00 0.00 0.00 88 3404.5
20260510035022 60 133 0.0 0.0 0.00 0.00 0.00 88 3404.5
20260510034522 60 133 0.0 0.0 0.00 0.00 0.00 87 3404.4
20260510034017 60 133 0.0 0.0 0.00 0.00 0.00 87 3404.5
20260510033514 60 133 0.0 0.0 0.00 0.00 0.00 87 3404.7
20260510033012 60 133 0.0 0.0 0.00 0.00 0.00 86 3404.7
20260510032508 60 133 0.0 0.0 0.00 0.00 0.00 86 3404.8
20260510032008 60 133 0.0 0.0 0.00 0.00 0.00 85 3404.8
20260510031504 60 133 0.0 0.0 0.00 0.00 0.00 85 3404.8
20260510031000 61 133 0.0 0.0 0.00 0.00 0.00 84 3404.6
20260510030455 61 133 0.0 0.0 0.00 0.00 0.00 84 3404.7
20260510025953 61 133 0.0 0.0 0.00 0.00 0.00 84 3404.7
20260510025450 61 133 0.0 0.0 0.00 0.00 0.00 84 3404.8
20260510024948 62 133 0.0 0.0 0.00 0.00 0.00 83 3404.6
20260510024444 62 133 0.0 0.0 0.00 0.00 0.00 83 3404.7
20260510023940 62 133 0.0 0.0 0.00 0.00 0.00 82 3404.7
20260510023436 62 134 0.0 0.0 0.00 0.00 0.00 81 3404.5
20260510022934 62 133 0.0 0.0 0.00 0.00 0.00 80 3404.3
20260510022433 62 133 0.0 0.0 0.00 0.00 0.00 79 3404.6
20260510021932 63 133 0.0 0.0 0.00 0.00 0.00 79 3404.3
20260510021430 63 134 0.0 0.0 0.00 0.00 0.00 79 3404.3
20260510020926 63 133 0.0 0.0 0.00 0.00 0.00 78 3404.4
20260510020421 64 133 0.0 0.0 0.00 0.00 0.00 77 3404.2
20260510015917 64 134 0.0 0.0 0.00 0.00 0.00 76 3404.1
20260510015413 64 133 0.0 0.0 0.00 0.00 0.00 76 3403.9
20260510014908 64 133 0.0 0.0 0.00 0.00 0.00 76 3403.9
20260510014406 65 133 0.0 0.0 0.00 0.00 0.00 75 3403.9
20260510013902 65 134 0.0 0.0 0.00 0.00 0.00 74 3403.7
20260510013357 66 134 0.0 0.0 0.00 0.00 0.00 74 3403.8
20260510012852 66 134 0.0 0.0 0.00 0.00 0.00 72 3403.3
20260510012347 67 133 0.0 0.0 0.00 0.00 0.00 72 3403.4
20260510011842 67 134 0.0 0.0 0.00 0.00 0.00 71 3403.4
20260510011338 68 134 0.0 0.0 0.00 0.00 0.00 72 3403.3
20260510010834 69 134 0.0 0.0 0.00 0.00 0.00 70 3403.4
20260510010332 69 134 0.0 0.0 0.00 0.00 0.00 66 3403.2
20260510005828 70 134 0.0 0.0 0.00 0.00 0.00 64 3403.2
20260510005325 70 134 0.0 0.0 0.00 0.00 0.00 64 3403.1
20260510004823 71 134 0.0 0.0 0.00 0.00 0.00 62 3403.2
20260510004320 71 134 0.0 0.0 0.00 0.00 0.00 62 3403.1
20260510003818 72 134 0.0 2.0 0.00 0.00 0.00 60 3403.0
20260510003314 72 134 0.0 0.0 0.00 0.00 0.00 61 3402.8
20260510002813 73 133 0.0 0.0 0.00 0.00 0.00 60 3402.8
20260510002310 73 133 0.0 2.0 0.00 0.00 0.00 60 3402.7
20260510001807 73 133 0.0 0.0 0.00 0.00 0.00 59 3402.6
20260510001305 74 134 0.0 0.0 0.00 0.00 0.00 57 3402.3
20260510000800 74 133 0.0 0.0 0.00 0.00 0.00 57 3402.7
20260510000258 75 133 0.0 0.0 0.00 0.00 0.00 57 3402.6
20260509235756 75 134 0.0 0.0 0.00 0.00 0.00 55 3402.3
20260509235252 76 125 0.0 0.0 0.00 0.00 0.00 54 3402.3
20260509234747 76 125 0.0 0.0 0.00 0.00 0.00 53 3402.3
20260509234244 76 125 0.0 0.0 0.00 0.00 0.00 53 3402.3
20260509233743 77 120 0.0 0.0 0.00 0.00 0.00 53 3402.1
20260509233240 77 114 0.0 0.0 0.00 0.00 0.00 53 3402.2
20260509232736 77 112 0.0 0.0 0.00 0.00 0.00 52 3402.4
20260509232233 78 122 0.0 0.0 0.00 0.00 0.00 51 3402.3
20260509231729 78 123 1.0 2.0 0.00 0.00 0.00 50 3402.3
20260509231227 79 126 0.0 0.0 0.00 0.00 0.00 48 3402.6
20260509230724 80 126 0.0 0.0 0.00 0.00 0.00 49 3402.3
20260509230221 81 118 1.0 2.0 0.00 0.00 0.00 46 3402.2
20260509225716 81 193 1.0 2.0 0.00 0.00 0.00 47 3402.4
20260509225212 81 193 1.0 2.0 0.00 0.00 0.00 46 3402.2
20260509224708 80 160 0.0 0.0 0.00 0.00 0.00 48 3402.1
20260509224205 80 160 2.0 2.0 0.00 0.00 0.00 47 3402.6
20260509223702 81 151 3.0 3.0 0.00 0.00 0.00 45 3402.3
20260509223159 82 241 2.0 3.0 0.00 0.00 0.00 44 3402.1
20260509222656 82 144 0.0 0.0 0.00 0.00 0.00 46 3402.1
20260509222152 81 148 0.0 0.0 0.00 0.00 0.00 44 3402.0
20260509221648 82 141 3.0 3.0 0.00 0.00 0.00 44 3402.1
20260509221143 82 150 0.0 2.0 0.00 0.00 0.00 44 3402.0
20260509220640 81 211 2.0 3.0 0.00 0.00 0.00 47 3402.2
20260509220136 81 348 2.0 3.0 0.00 0.00 0.00 46 3402.2
20260509215632 82 44 2.0 3.0 0.00 0.00 0.00 44 3402.1
20260509215129 81 224 1.0 2.0 0.00 0.00 0.00 45 3402.2
20260509214626 80 319 3.0 3.0 0.00 0.00 0.00 46 3402.1
20260509214123 80 65 0.0 2.0 0.00 0.00 0.00 48 3402.1
20260509213619 80 141 0.0 0.0 0.00 0.00 0.00 46 3402.0
20260509213115 81 292 4.0 5.0 0.00 0.00 0.00 44 3401.9
20260509212613 81 287 0.0 2.0 0.00 0.00 0.00 44 3402.0
20260509212110 81 228 0.0 0.0 0.00 0.00 0.00 50 3401.9
20260509211606 80 88 1.0 2.0 0.00 0.00 0.00 47 3402.1
20260509211103 79 354 5.0 7.0 0.00 0.00 0.00 46 3401.8
20260509210559 79 9 2.0 2.0 0.00 0.00 0.00 48 3401.9
20260509210056 79 311 3.0 5.0 0.00 0.00 0.00 50 3402.1
20260509205550 78 321 5.0 7.0 0.00 0.00 0.00 49 3402.2
20260509205045 78 173 2.0 3.0 0.00 0.00 0.00 53 3402.1
20260509204542 77 15 1.0 2.0 0.00 0.00 0.00 52 3402.0
20260509204038 78 125 1.0 2.0 0.00 0.00 0.00 54 3402.2
20260509203534 77 272 2.0 3.0 0.00 0.00 0.00 53 3402.3
20260509203033 78 26 2.0 3.0 0.00 0.00 0.00 54 3402.6
20260509202527 77 164 2.0 3.0 0.00 0.00 0.00 57 3402.6
20260509202023 77 259 4.0 5.0 0.00 0.00 0.00 55 3402.7
20260509201518 77 261 5.0 7.0 0.00 0.00 0.00 55 3402.7
20260509201016 77 166 0.0 2.0 0.00 0.00 0.00 56 3402.7
20260509200510 77 248 3.0 5.0 0.00 0.00 0.00 56 3402.8
20260509200007 77 260 4.0 5.0 0.00 0.00 0.00 57 3403.0
20260509195502 77 265 1.0 2.0 0.00 0.00 0.00 55 3402.6
20260509195001 77 20 3.0 3.0 0.00 0.00 0.00 56 3402.8
20260509194457 78 133 3.0 3.0 0.00 0.00 0.00 56 3402.9
20260509193955 79 95 3.0 3.0 0.00 0.00 0.00 54 3403.0
20260509193454 77 159 0.0 0.0 0.00 0.00 0.00 57 3402.9
20260509192951 77 159 1.0 2.0 0.00 0.00 0.00 59 3403.1
20260509192448 76 135 1.0 2.0 0.00 0.00 0.00 59 3403.0
20260509191943 76 259 3.0 3.0 0.00 0.00 0.00 57 3402.8
20260509191438 76 153 0.0 2.0 0.00 0.00 0.00 57 3402.9
20260509190934 77 251 4.0 5.0 0.00 0.00 0.00 56 3403.0
20260509190431 78 300 5.0 7.0 0.00 0.00 0.00 56 3402.7
20260509185929 77 135 3.0 3.0 0.00 0.00 0.00 60 3402.8
20260509185426 76 276 0.0 0.0 0.00 0.00 0.00 54 3402.8
20260509184923 76 261 3.0 3.0 0.00 0.00 0.00 58 3402.9
20260509184421 75 12 1.0 2.0 0.00 0.00 0.00 60 3402.8
20260509183917 76 302 5.0 7.0 0.00 0.00 0.00 59 3403.2
20260509183411 76 333 3.0 3.0 0.00 0.00 0.00 60 3402.9
20260509182908 76 303 5.0 8.0 0.00 0.00 0.00 58 3402.9
20260509182405 76 239 3.0 5.0 0.00 0.00 0.00 59 3403.0
20260509181902 77 125 2.0 2.0 0.00 0.00 0.00 59 3402.9
20260509181359 77 262 1.0 2.0 0.00 0.00 0.00 61 3403.1
20260509180857 76 86 1.0 2.0 0.00 0.00 0.00 63 3402.9
20260509180352 75 66 0.0 2.0 0.00 0.00 0.00 61 3402.9
20260509175849 75 134 1.0 2.0 0.00 0.00 0.00 60 3402.9
20260509175345 75 272 2.0 3.0 0.00 0.00 0.00 61 3403.3
20260509174841 74 72 0.0 0.0 0.00 0.00 0.00 62 3403.1
20260509174338 74 295 1.0 2.0 0.00 0.00 0.00 63 3403.2
20260509173834 74 42 0.0 0.0 0.00 0.00 0.00 63 3403.1
20260509173329 74 335 2.0 3.0 0.00 0.00 0.00 62 3403.3
20260509172825 73 132 1.0 2.0 0.00 0.00 0.00 61 3403.2
20260509172322 73 160 3.0 3.0 0.00 0.00 0.00 65 3403.3
20260509171818 73 321 3.0 5.0 0.00 0.00 0.00 65 3403.2
20260509171314 73 117 0.0 0.0 0.00 0.00 0.00 65 3403.1
20260509170811 72 356 1.0 3.0 0.00 0.00 0.00 66 3403.1
20260509170307 72 331 3.0 5.0 0.00 0.00 0.00 65 3403.1
20260509165806 71 15 2.0 3.0 0.00 0.00 0.00 70 3403.0
20260509165301 71 313 3.0 5.0 0.00 0.00 0.00 68 3403.4
20260509164757 71 343 3.0 5.0 0.00 0.00 0.00 69 3403.3
20260509164254 71 194 2.0 3.0 0.00 0.00 0.00 68 3403.4
20260509163750 71 1 3.0 3.0 0.00 0.00 0.00 71 3403.4
20260509163247 71 315 5.0 7.0 0.00 0.00 0.00 68 3403.3
20260509162745 70 29 0.0 2.0 0.00 0.00 0.00 71 3403.4
20260509162239 70 157 3.0 3.0 0.00 0.00 0.00 72 3403.0
20260509161736 70 31 1.0 2.0 0.00 0.00 0.00 72 3403.1
20260509161232 69 12 2.0 3.0 0.00 0.00 0.00 71 3403.0
20260509160727 69 294 1.0 2.0 0.00 0.00 0.00 70 3403.2
20260509160224 69 289 2.0 3.0 0.00 0.00 0.00 72 3403.3
20260509155718 69 131 2.0 3.0 0.00 0.00 0.00 74 3403.3
20260509155216 68 36 2.0 2.0 0.00 0.00 0.00 75 3403.3
20260509154711 68 336 3.0 3.0 0.00 0.00 0.00 77 3403.1
20260509154209 68 147 2.0 3.0 0.00 0.00 0.00 77 3403.0
20260509153706 67 16 1.0 3.0 0.00 0.00 0.00 77 3402.9
20260509153202 67 337 3.0 3.0 0.00 0.00 0.00 77 3403.0
20260509152658 67 311 2.0 3.0 0.00 0.00 0.00 77 3402.8
20260509152155 67 264 3.0 3.0 0.00 0.00 0.00 76 3403.0
20260509151652 66 82 0.0 0.0 0.00 0.00 0.00 80 3402.9
20260509151149 66 80 1.0 2.0 0.00 0.00 0.00 80 3403.1
20260509150647 65 113 0.0 0.0 0.00 0.00 0.00 82 3402.7
20260509150145 65 270 5.0 5.0 0.00 0.00 0.00 82 3403.0
20260509145641 65 33 2.0 3.0 0.00 0.00 0.00 82 3403.0
20260509145136 64 123 0.0 0.0 0.00 0.00 0.00 83 3403.3
20260509144633 64 148 3.0 3.0 0.00 0.00 0.00 83 3402.9
20260509144130 64 175 2.0 3.0 0.00 0.00 0.00 84 3402.6
20260509143627 64 139 0.0 2.0 0.00 0.00 0.00 85 3402.7
20260509143125 64 17 2.0 2.0 0.00 0.00 0.00 85 3402.8
20260509142620 63 305 2.0 3.0 0.00 0.00 0.00 86 3402.6
20260509142117 63 119 1.0 2.0 0.00 0.00 0.00 86 3402.6
20260509141612 63 3 7.0 10.0 0.00 0.00 0.00 87 3402.3
20260509141109 62 45 2.0 2.0 0.00 0.00 0.00 87 3402.6
20260509140606 62 157 1.0 2.0 0.00 0.00 0.00 88 3402.4
20260509140104 62 352 1.0 3.0 0.00 0.00 0.00 88 3402.3
20260509135601 62 134 2.0 2.0 0.00 0.00 0.00 88 3402.6
20260509135059 61 157 3.0 5.0 0.00 0.00 0.00 89 3402.3
20260509134555 61 61 1.0 2.0 0.00 0.00 0.00 89 3402.7
20260509134053 61 22 1.0 2.0 0.00 0.00 0.00 89 3402.4
20260509133550 61 358 1.0 2.0 0.00 0.00 0.00 90 3402.3
20260509133047 61 337 1.0 2.0 0.00 0.00 0.00 89 3402.7
20260509132545 60 28 0.0 2.0 0.00 0.00 0.00 90 3402.4
20260509132044 60 126 3.0 3.0 0.00 0.00 0.00 89 3402.8
20260509131539 60 160 3.0 5.0 0.00 0.00 0.00 90 3402.7
20260509131036 60 327 1.0 2.0 0.00 0.00 0.00 90 3402.4
20260509130532 60 232 1.0 2.0 0.00 0.00 0.00 91 3402.8
20260509130029 59 74 0.0 0.0 0.00 0.00 0.00 91 3402.6
20260509125525 59 303 3.0 3.0 0.00 0.00 0.00 91 3402.6
20260509125022 59 74 0.0 0.0 0.00 0.00 0.00 92 3402.6
20260509124519 59 63 0.0 0.0 0.00 0.00 0.00 92 3402.4
20260509124016 59 117 0.0 0.0 0.00 0.00 0.00 93 3402.3
20260509123514 59 52 0.0 2.0 0.00 0.00 0.00 94 3402.2
20260509123010 59 177 0.0 0.0 0.00 0.00 0.00 95 3402.2
20260509122506 59 148 1.0 3.0 0.00 0.00 0.00 95 3402.1
20260509122003 58 132 0.0 0.0 0.00 0.00 0.00 95 3402.2
20260509121500 58 124 0.0 0.0 0.00 0.00 0.00 95 3402.0
20260509120958 58 169 2.0 2.0 0.00 0.00 0.00 96 3401.8
20260509120455 58 74 0.0 0.0 0.00 0.00 0.00 96 3401.7
20260509115954 57 144 1.0 2.0 0.00 0.00 0.00 96 3401.5
20260509115450 57 118 0.0 0.0 0.00 0.00 0.00 96 3401.8
20260509114948 57 119 0.0 2.0 0.00 0.00 0.00 96 3401.4
20260509114446 57 119 0.0 0.0 0.00 0.00 0.00 96 3401.6
20260509113945 57 69 0.0 0.0 0.00 0.00 0.00 96 3401.5
20260509113442 57 69 0.0 0.0 0.00 0.00 0.00 96 3401.5
20260509112939 57 41 0.0 0.0 0.00 0.00 0.00 96 3401.6
20260509112436 57 41 0.0 0.0 0.00 0.00 0.00 96 3401.2
20260509111933 57 41 0.0 0.0 0.00 0.00 0.00 96 3401.2
20260509111431 57 41 0.0 0.0 0.00 0.00 0.00 96 3401.3
20260509110928 57 58 0.0 0.0 0.00 0.00 0.00 96 3401.3
20260509110423 57 58 0.0 0.0 0.00 0.00 0.00 96 3401.1
20260509105922 57 56 0.0 0.0 0.00 0.00 0.00 96 3401.1
20260509105420 57 25 2.0 2.0 0.00 0.00 0.00 96 3400.9
20260509104917 57 41 0.0 0.0 0.00 0.00 0.00 96 3400.9
20260509104413 57 41 0.0 0.0 0.00 0.00 0.00 95 3400.9
20260509103911 57 37 0.0 0.0 0.00 0.00 0.00 95 3400.9
20260509103408 57 89 0.0 0.0 0.00 0.00 0.00 95 3400.5
20260509102907 57 88 0.0 0.0 0.00 0.00 0.00 94 3400.6
20260509102404 58 87 0.0 0.0 0.00 0.00 0.00 94 3400.3
20260509101859 58 87 0.0 0.0 0.00 0.00 0.00 94 3400.3
20260509101355 58 50 0.0 0.0 0.00 0.00 0.00 93 3400.6
20260509100853 58 94 0.0 0.0 0.00 0.00 0.00 93 3400.8
20260509100350 58 96 0.0 0.0 0.00 0.00 0.00 93 3400.8
20260509095847 58 84 0.0 0.0 0.00 0.00 0.00 92 3400.7
20260509095344 58 88 0.0 0.0 0.00 0.00 0.00 92 3400.9
20260509094841 58 91 0.0 0.0 0.00 0.00 0.00 92 3401.1
20260509094338 58 29 1.0 2.0 0.00 0.00 0.00 91 3400.8
20260509093836 58 132 0.0 0.0 0.00 0.00 0.00 91 3400.8
20260509093332 59 132 0.0 0.0 0.00 0.00 0.00 90 3400.9
20260509092831 59 100 0.0 0.0 0.00 0.00 0.00 90 3400.9
20260509092328 59 68 1.0 2.0 0.00 0.00 0.00 89 3400.9
20260509091826 59 134 0.0 0.0 0.00 0.00 0.00 88 3401.3
20260509091323 59 126 0.0 0.0 0.00 0.00 0.00 87 3401.0
20260509090820 60 85 0.0 2.0 0.00 0.00 0.00 86 3400.7
20260509090317 59 59 0.0 2.0 0.00 0.00 0.00 85 3401.0
20260509085815 59 72 0.0 0.0 0.00 0.00 0.00 85 3400.9
20260509085312 59 159 0.0 0.0 0.00 0.00 0.00 84 3400.8
20260509084808 59 158 0.0 0.0 0.00 0.00 0.00 84 3400.9
20260509084306 59 158 0.0 0.0 0.00 0.00 0.00 84 3400.6
20260509083803 59 158 0.0 0.0 0.00 0.00 0.00 83 3400.9
20260509083300 60 158 0.0 0.0 0.00 0.00 0.00 83 3401.1
20260509082756 59 158 0.0 0.0 0.00 0.00 0.00 83 3401.1
20260509082253 60 159 0.0 0.0 0.00 0.00 0.00 83 3401.2
20260509081750 60 150 0.0 0.0 0.00 0.00 0.00 82 3401.3
20260509081247 59 199 1.0 2.0 0.00 0.00 0.00 82 3401.3
20260509080745 59 256 0.0 0.0 0.00 0.00 0.00 82 3401.5
20260509080243 59 154 0.0 0.0 0.00 0.00 0.00 82 3401.5
20260509075741 59 154 0.0 0.0 0.00 0.00 0.00 82 3401.4